Regional Weather Roundup
Issued by NWS

Home | Current Version | Previous Version | Text Only | Print | Product List | Glossary Off
Versions: 1 2 3 4 5 6 7 8 9 10 11 12 13 14 15 16 17 18 19 20 21 22 23 24 25 26 27 28 29 30 31 32 33 34 35 36 37 38 39 40 41 42 43 44 45 46 47 48 49 50

000
ASUS44 KMEG 062010
RWRTN
TENNESSEE HOURLY STATE WEATHER ROUNDUP
NATIONAL WEATHER SERVICE MEMPHIS TN
200 PM CST FRI MAR 06 2015

TNZ002-004-019-021-049-052-054-088>092-062100-
WEST TENNESSEE

CITY           SKY/WX    TMP DP  RH WIND       PRES   REMARKS
MEMPHIS INTL   SUNNY     38  12  34 CALM      30.53
NWS MEMPHIS      N/A     37 N/A N/A MISG        N/A
JACKSON        SUNNY     34   9  35 NW3       30.53
DYERSBURG      SUNNY     30   7  37 W3        30.56F
UNION CITY     SUNNY     28  12  50 S5        30.52F WCI  23
PARIS          SUNNY     28   3  34 CALM      30.50F
LEXINGTON      SUNNY     36  12  38 CALM      30.50F
SAVANNAH       SUNNY     36  12  38 N8        30.51F WCI  29
$$

TNZ008-025-027-028-033-062-065-066-062100-
NORTH MIDDLE TENNESSEE

CITY           SKY/WX    TMP DP  RH WIND       PRES   REMARKS
NASHVILLE      SUNNY     34  18  52 CALM      30.51
CLARKSVILLE    SUNNY     30  16  56 N7        30.50  WCI  23
SMYRNA         SUNNY     35  17  48 N5        30.52  WCI  31
COOKEVILLE     SUNNY     32  18  55 CALM      30.45F
CROSSVILLE     SUNNY     33  17  51 VRB3      30.40
$$

TNZ061-075-076-078-094-096-097-062100-
SOUTH MIDDLE TENNESSEE

CITY           SKY/WX    TMP DP  RH WIND       PRES   REMARKS
FAYETTEVILLE   SUNNY     32  21  64 CALM        N/A
TULLAHOMA      SUNNY     34  18  51 VRB3        N/A
WINCHESTER     SUNNY     34  19  55 VRB3      30.46F
MCMINNVILLE    SUNNY     32  18  55 VRB3      30.45F
COLUMBIA         N/A     34  18  51 N3        30.48F
SHELBYVILLE    SUNNY     34  21  60 CALM      30.49F
$$

TNZ017-018-042-046-047-062100-
NORTHEAST TENNESSEE

CITY           SKY/WX    TMP DP  RH WIND       PRES   REMARKS
TRI CITIES     MOSUNNY   35  15  44 NW10      30.39  WCI  27
ELIZABETHTON   CLEAR     36  19  51 W7        30.37R WCI  30
$$

TNZ012-013-036-069-073-074-062100-
CENTRAL EAST TENNESSEE

CITY           SKY/WX    TMP DP  RH WIND       PRES   REMARKS
KNOXVILLE      MOSUNNY   37  21  52 W9        30.45  WCI  30
OAK RIDGE      SUNNY     39  18  42 VRB5      30.45
GATLINBURG     PTCLDY    36  23  60 VRB7      30.43S WCI  30
MORRISTOWN     CLEAR     36  19  51 W6        30.43S WCI  31
$$

TNZ083-085-099-062100-
SOUTHEAST TENNESSEE

CITY           SKY/WX    TMP DP  RH WIND       PRES   REMARKS
CHATTANOOGA    MOSUNNY   43  18  36 NE7       30.45
$$

SKY/WX REPORTED AS FAIR MEANS FEW OR NO CLOUDS BELOW
12 THOUSAND FEET.



USA.gov is the U.S. government's official web portal to all federal, state and local government web resources and services.